EUTE 70B

导读

EUTELSAT 70B(简称EUTE 70B),是欧洲通信卫星公司(Eutelsat)的通信卫星,于2012年12月3日(UTC时间12月2日)通过海上发射平台发射入轨。该卫星定点于东经70.5度轨位,处于四大洲交汇的核心位置,提供广域波束覆盖,另有四组高性能固定波束覆盖欧洲、非洲、中亚、东南亚及澳大利亚区域,星上具备高等级互联能力,可为跨区域通信提供可扩展的高速连接服务,由Astrium公司承建。

基本信息
目录编号:
39020
目录名称:
EUTE 70B
国际标识:
2012-069A
轨道中心:
EARTH
卫星名称:
EUTE 70B
卫星全名:
--
卫星状态:
在轨 (已飞行4971 天)
发射日期:
2012-12-03 UTC
国别 :
(EUTE)
星等 :
--
轨道信息
数据来源 国际轨道数据 AOE轨道数据
星历时间 2026-07-14T11:29:15+0800
4小时前
查看轨道信息
2026-07-12T08:00:00+0800
2天前
查看轨道信息
半长轴 42164.896km 42164.868km
偏心率 0.0003645 0.0003571
轨道倾角 0.061° 0.061°
近地点辐角 113.768° 115.357°
升交点赤经 358.533° 357.088°
平近点角 302.516° 247.950°
近地点 35771.389km 35771.673km
远地点 35802.129km 35801.789km
周期 1436.105分钟 1436.104分钟
每日圈数 1.002712 1.002713
详细信息
使用方式:
暂无
2D轨道图
3D轨道图
轨道高度分析图
轨道倾角分析图
轨道综合分析图
查看轨道综合分析图